Regional Weather Roundup
Issued by NWS

Home | Current Version | Previous Version | Graphics & Text | Print | Product List | Glossary On
Versions: 1 2 3 4 5 6 7 8 9 10 11 12 13 14 15 16 17 18 19 20 21 22 23 24 25 26 27 28 29 30 31 32 33 34 35 36 37 38 39 40 41 42 43 44 45 46 47 48 49 50
370
ASUS43 KLMK 271310
RWRKY
KENTUCKY REGIONAL WEATHER ROUNDUP
NATIONAL WEATHER SERVICE LOUISVILLE KY
900 AM EDT WED JUL 27 2016

NOTE "FAIR" INDICATES FEW OR NO CLOUDS BELOW 12,000 FEET
WITH NO SIGNIFICANT WEATHER AND/OR OBSTRUCTIONS TO VISIBILITY.

KYZ001>023-026-027-061>063-070>075-271400-
WESTERN AND SOUTH CENTRAL KENTUCKY

CITY           SKY/WX    TMP DP  RH WIND       PRES   REMARKS
PADUCAH        SUNNY     79  75  87 CALM      29.99S
HENDERSON      CLOUDY    75  73  94 CALM      29.98F VSB 1/4
OWENSBORO      CLOUDY    81  78  90 CALM      30.00F FOG
HOPKINSVILLE   PTSUNNY   78  76  93 E6        30.00F FOG
BOWLING GREEN  CLOUDY    80  75  84 SE6       30.01F
GLASGOW        MOSUNNY   76  75  95 CALM      30.02S
$$

KYZ024-025-028>034-038-045-046-053-271400-
NORTH CENTRAL KENTUCKY

CITY           SKY/WX    TMP DP  RH WIND       PRES   REMARKS
LOUISVILLE/SDF PTSUNNY   80  73  79 CALM      30.00F HAZE
LOUISVILLE/LOU SUNNY     80  73  79 CALM      30.01F
FORT KNOX      MOSUNNY   78  74  88 N3        30.00F
$$

KYZ035>037-039>044-047>052-055>060-089>105-271400-
NORTHEAST KENTUCKY

CITY           SKY/WX    TMP DP  RH WIND       PRES   REMARKS
LEXINGTON      MOSUNNY   78  73  84 CALM      30.04S
COVINGTON      CLOUDY    76  73  91 NW3       30.03S
FRANKFORT      SUNNY     77  73  87 N3        30.02F
$$

KYZ054-064>069-076>088-106>120-271400-
SOUTHEAST KENTUCKY

CITY           SKY/WX    TMP DP  RH WIND       PRES   REMARKS
JACKSON        MOSUNNY   78  74  87 CALM      30.06S
LONDON         LGT RAIN  77  72  84 W6        30.07R
SOMERSET       LGT RAIN  73  73 100 CALM      30.07R
MIDDLESBORO    SUNNY     77  74  89 CALM      30.07F
MONTICELLO     CLOUDY   N/A N/A N/A N8        30.07R
$$





USA.gov is the U.S. government's official web portal to all federal, state and local government web resources and services.